sat.trackr.live / text

‹ back to catalog

STARLINK-4350

NORAD 53045 · 2022-077C

PAYLOAD ACTIVE UNKNOWN

§ Identity

Operator
Country
US
Launch date
2022-07-11
Launch site
AFWTR
Launch vehicle
Mass (kg)
RCS (m²)

Purposes: comms

External: N2YO · Heavens-Above · Gunter

§ Orbital elements

Epoch: 2026-05-25T02:13:03.639072Z

Period
95.64 min
Inclination
97.4489°
Eccentricity
0.0000757
Mean motion
15.05641283 rev/d
Perigee alt
549.0 km
Apogee alt
550.1 km
Semi-major
6,927.7 km
B*
6.9173e-5
RAAN
326.1438°
Arg perigee
77.3448°
Mean anomaly
282.7864°
Rev number
21,248

§ Raw data

STARLINK-43501 53045U 22077C   26145.09240323  .00000939  00000+0  69173-4 0  99962 53045  97.4489 326.1438 0000757  77.3448 282.7864 15.05641283212488

JSON: /api/v1/satellites/53045 · /tle

For live sub-satellite position, see the globe view (requires WebGL).

§ Visibility from observer

Set your observer location to see the next 7 days of passes ≥ 10°. The values pass through the URL so the page stays shareable.

No JS? Fill the form by hand. The geolocation button needs JavaScript.